Regional Weather Roundup
Issued by NWS Northern Indiana

Home | Current Version | Previous Version | Graphics & Text | Print | Product List | Glossary On
Versions: 1 2 3 4 5 6 7 8 9 10 11 12 13 14 15 16 17 18 19 20 21 22 23 24 25 26 27 28 29 30 31 32 33 34 35 36 37 38 39 40 41 42 43 44 45 46 47 48 49 50
000
ASUS43 KIWX 240110
RWRIWX

KIWX WEATHER ROUNDUP
NATIONAL WEATHER SERVICE NORTHERN INDIANA
900 PM EDT TUE SEP 23 2014

NOTE: "FAIR" INDICATES FEW OR NO CLOUDS BELOW 12,000 FEET WITH NO
SIGNIFICANT WEATHER AND/OR OBSTRUCTIONS TO VISIBILITY.

* THESE STATIONS ARE NOT UNDER NWS QUALITY CONTROL. THEY ALSO MAY NOT
  REPORT WEATHER SUCH AS PRECIPITATION OR FOG.

INZ001>027-240200-
NORTHERN INDIANA

CITY           SKY/WX    TMP DP  RH WIND       PRES   REMARKS
GARY*          PTCLDY    55  52  88 E5        30.30S
VALPARAISO     CLEAR     57  50  77 NE3       30.31R
MICHIGAN CITY* CLEAR     54  52  94 CALM      30.31S
LAPORTE*       CLEAR     55  50  81 CALM      30.32R
KNOX*          CLEAR     55  51  86 CALM      30.29R
SOUTH BEND     CLEAR     58  50  75 N6        30.32R
ELKHART*       CLEAR     61  52  72 N5        30.31R
GOSHEN         CLEAR     56  50  80 CALM      30.31R
MONTICELLO*    CLEAR     56  52  85 CALM      30.29R
LOGANSPORT*    CLEAR     54  46  76 E3        30.31R
ROCHESTER*     CLEAR     61  52  72 CALM      30.31R
WARSAW*        CLEAR     54  50  87 CALM      30.31R
ANGOLA*        CLEAR     55  52  88 CALM      30.32S
FORT WAYNE     CLEAR     57  50  77 CALM      30.32R
HUNTINGTON*    CLEAR     54  51  89 CALM      30.31R
PERU/GRISSOM   CLEAR     60  52  72 E7        30.30R
MARION*        CLEAR     55  49  82 E5        30.31S

$$
INZ028>050-240200-
CENTRAL INDIANA

CITY           SKY/WX    TMP DP  RH WIND       PRES   REMARKS
LAFAYETTE      CLEAR     56  51  84 CALM      30.29R
KOKOMO*        CLEAR     55  48  76 E3        30.30S
MUNCIE*        CLEAR     57  48  72 NE3       30.30R
INDIANAPOLIS   PTCLDY    64  47  53 NE5       30.27R

$$
MIZ043>046-050>051-056>058-064>065-071>073-077>080-240200-
SOUTHWEST LOWER MICHIGAN

CITY           SKY/WX    TMP DP  RH WIND       PRES   REMARKS
BATTLE CREEK   CLEAR     60  52  74 SW3       30.33R
BENTON HARBOR  CLEAR     52  49  89 CALM      30.31R
COLDWATER*     CLEAR     57  53  85 CALM      30.32R
HILLSDALE*     CLEAR     55  52  88 CALM      30.33R
HOLLAND        CLEAR     56  52  86 CALM      30.32S
GRAND RAPIDS   CLEAR     62  53  72 W5        30.32R
KALAMAZOO      CLEAR     62  51  67 N3        30.33R
STURGIS*       CLEAR     54  52  94 CALM      30.31S
THREE RIVERS*  FAIR      59  53  79 CALM      30.32R

$$
OHZ001>008-015>018-024>025-240200-
NORTHWEST OHIO

CITY           SKY/WX    TMP DP  RH WIND       PRES   REMARKS
WAUSEON*       FAIR      54  50  87 CALM      30.33R
DEFIANCE       CLEAR    N/A N/A N/A CALM      30.32R
FINDLAY        CLEAR     64  45  49 MISG      30.31S
TOLEDO EXPRESS CLEAR     56  51  84 E3        30.33R
TOLEDO METCALF CLEAR     58  50  75 E6          N/A
LIMA           CLEAR     56  50  80 E3        30.32R

$$
AND FOR LAKE MICHIGAN COASTAL AND OPEN LAKE BUOY OBSERVATIONS

STATION/POSITION TEMP    WIND        PRES    VSBY  WAVE
                 AIR SEA DIR/SP/G                  HT/PER
                 (F)     (DEG/KT/KT) (MB)    (MI)  (FT/S)
CALUMET HARBOR           100/  4/  5   N/A
SAINT JOSEPH      59        CALM     1027.1R
SOUTH LAKE BUOY   62 62  150/  6/  6 1026.3R         1
4 MI NW BRIDGMAN  64 65   80/  4/  6   N/A           0
MICHIGAN CITY     64 64   80/  8/ 10   N/A           1

$$
&&


USA.gov is the U.S. government's official web portal to all federal, state and local government web resources and services.